{"data":{"norad_id":66970,"epoch":"2026-05-24T21:15:21.815424Z","epoch_age_seconds":78091,"freshness":"FRESH","line1":"1 66970U 25288M   26144.88566916  .00029349  00000+0  10705-2 0  9990","line2":"2 66970  43.0006 312.8757 0001467 269.9421  90.1263 15.27618876 26940","mean_motion":15.27618876,"eccentricity":0.0001467,"inclination_deg":43.0006,"raan_deg":312.8757,"arg_perigee_deg":269.9421,"mean_anomaly_deg":90.1263,"bstar":0.0010705,"rev_number":2694,"period_min":94.264349742167,"perigee_km":481.92617085531,"apogee_km":483.9392087023,"semimajor_km":6861.0696897788,"source":"CELESTRAK","updated_at":"2026-05-25T13:38:21.422250Z"}}